Tracking 26544 objects as of 9-Dec-2022
HD Live streaming from Space Station
objects crossing your sky now

ATLAS 5 CENTAUR DEB

Track ATLAS 5 CENTAUR DEB now!


NORAD ID: 44665
Int'l Code: 2018-079AB
Perigee: 9,473.2 km
Apogee: 37,389.2 km
Inclination: 10.3 °
Period: 853.4 minutes
Semi major axis: 29802 km
RCS: Unknown
Launch date: October 17, 2018
Source: United States (US)
Launch site: AIR FORCE EASTERN TEST RANGE (AFETR)

Note: This is SATELLITE DEBRIS
aabbcc
Your satellite tracking list
Your tracking list is empty




NASA's NSSDC Master Catalog

Two Line Element Set (TLE):
1 44665U 18079AB  22342.39539110 -.00000063  00000-0  00000-0 0  9994
2 44665  10.3214 181.2852 4683554  41.7452 346.0368  1.68745048 21650
Source of the keplerian elements: AFSPC